Theta_e
308 311 313 315 318 321 323 323 324 324 324 324 323 323 323 323 321 319 320 321 321 321 321 320 319 318 318 319 319 320 320 320 320 321 321 322 321 321 321 322 322 322 321 322 322 320 321 321 321 320 319 318 318 319 319 318 318 317 317 314 315 314 313 311 310 309 309 309 307 308 310 307 307 306 311 312 311 311 308 310 308 306 304 303 302
302 303 305 309 314 317 321 322 321 321 323 324 323 323 323 323 322 321 320 320 321 322 322 321 321 321 320 320 320 321 320 319 320 321 322 322 321 321 321 322 322 322 321 322 322 322 321 321 320 320 319 318 319 320 319 316 317 316 314 313 311 314 314 313 312 313 307 310 306 305 303 308 306 306 308 310 311 310 310 309 307 307 305 302 301
300 303 304 305 310 314 318 321 322 323 323 323 325 324 323 323 323 323 321 320 321 322 322 321 322 321 321 320 321 319 319 321 321 321 320 321 322 322 321 322 322 322 322 321 322 322 322 321 321 321 320 319 318 318 318 317 317 317 316 316 314 308 311 310 312 315 312 301 303 308 307 305 304 303 305 306 308 308 307 308 307 307 307 304 302
298 300 301 304 307 311 315 319 321 322 322 323 324 324 324 323 324 323 322 321 321 321 320 322 322 322 321 320 319 321 319 318 318 318 319 320 321 322 322 322 322 322 322 322 321 323 322 322 322 320 321 319 319 319 318 318 318 317 317 316 316 314 309 312 311 313 313 311 307 311 305 303 304 301 301 304 305 307 307 307 306 307 306 303 301
300 300 300 302 304 307 312 317 320 321 322 323 323 324 325 324 324 324 324 322 321 320 320 321 319 317 317 315 314 314 315 314 315 318 319 320 320 321 322 322 322 322 322 322 321 322 322 322 322 321 320 320 319 319 319 319 319 319 318 317 316 316 314 310 308 311 313 316 314 306 304 303 305 300 299 303 302 304 304 306 306 307 305 304 301
301 302 302 302 303 306 309 314 317 320 322 323 324 325 325 325 324 324 325 324 322 321 320 320 319 319 317 317 316 316 316 316 316 318 319 319 320 322 319 321 321 321 322 321 321 320 322 322 321 321 320 319 318 319 319 319 318 318 318 318 317 316 317 311 309 306 313 313 315 317 314 311 303 300 303 299 298 303 302 304 305 304 304 303 302
301 301 302 300 301 304 306 311 315 318 321 323 324 324 324 325 324 324 325 324 324 322 320 319 319 319 319 319 319 318 317 318 320 320 319 320 320 320 321 319 321 321 321 321 321 320 320 321 321 321 320 319 318 318 318 318 318 318 318 318 318 317 315 315 314 312 308 311 313 313 310 305 307 307 306 298 299 302 303 302 303 302 302 302 302
303 303 303 303 302 303 305 308 313 317 320 322 323 324 324 324 324 324 325 323 325 324 321 320 320 320 319 319 319 319 319 319 319 320 318 316 319 320 319 319 319 321 321 321 321 321 319 320 320 320 320 319 317 317 318 318 317 317 317 318 318 318 317 316 316 313 313 312 311 313 312 309 305 306 307 310 307 299 303 303 301 302 301 301 302
304 304 304 303 303 303 304 306 310 315 318 320 322 323 324 324 324 324 324 324 324 324 322 321 320 321 320 320 319 319 320 320 315 315 318 317 318 318 319 319 319 319 321 321 321 321 319 320 320 320 320 319 316 317 317 317 317 317 316 316 317 318 318 318 318 317 314 315 310 312 313 313 311 309 307 307 307 304 304 305 302 297 299 300 300
303 303 304 305 304 303 304 305 307 312 317 319 321 322 323 323 323 322 323 324 324 324 323 322 321 320 320 320 319 320 319 318 314 316 316 316 318 318 318 319 319 319 320 321 321 321 321 320 320 321 320 320 317 318 318 318 319 319 320 320 320 320 320 319 319 320 319 318 318 317 314 313 312 310 308 307 304 305 306 303 305 300 298 300 300
301 301 302 303 303 302 300 302 306 309 313 316 319 320 321 322 322 321 323 324 323 323 323 323 322 321 321 321 320 320 320 318 317 317 317 315 318 318 318 319 319 320 320 321 322 322 322 322 321 322 322 322 321 322 322 321 321 321 321 321 321 321 321 321 319 319 320 319 319 318 318 316 315 313 312 311 310 302 302 302 305 303 304 302 299
300 300 300 300 300 298 297 300 303 307 310 313 316 317 318 320 320 320 321 322 322 323 322 323 323 322 322 322 322 322 321 320 319 319 319 318 318 318 316 317 318 320 322 324 324 325 325 325 324 324 323 324 324 324 324 324 324 324 323 322 322 322 322 321 321 320 319 320 320 319 318 318 317 316 316 314 312 312 310 308 306 300 299 302 295
297 298 299 299 300 300 298 299 300 304 309 312 314 315 317 318 319 319 320 321 322 322 322 322 322 323 323 323 323 323 322 322 321 320 320 319 318 317 316 318 320 321 323 324 325 326 326 326 326 325 325 325 326 326 326 327 326 326 325 324 323 323 322 322 321 321 321 320 320 321 320 320 319 319 319 317 316 315 312 309 305 302 304 301 298
296 298 298 299 299 299 300 300 300 303 307 311 313 314 316 317 318 319 320 320 321 320 321 321 322 323 323 323 323 323 322 322 322 321 320 319 319 318 318 318 319 321 322 323 325 326 326 327 327 327 327 327 326 326 327 327 326 326 326 325 324 324 324 323 323 322 322 322 322 321 320 319 319 320 318 316 314 311 309 308 305 299 302 301 292
294 295 297 298 299 299 300 300 300 301 304 309 311 313 315 316 317 317 318 319 319 320 320 320 322 322 322 323 323 323 323 322 322 322 320 318 317 317 318 318 319 319 320 322 321 323 324 325 326 327 327 327 327 326 326 326 326 325 325 324 324 324 323 322 323 322 322 322 321 321 319 319 319 318 317 315 315 314 312 310 308 304 297 294 294
295 293 295 296 297 296 297 297 298 298 301 306 309 312 313 315 316 317 318 318 319 318 320 320 321 322 322 322 322 321 320 321 320 318 318 318 317 317 318 318 319 319 319 318 320 321 323 323 324 325 327 327 327 326 326 326 325 325 324 324 323 323 323 322 321 321 321 321 321 321 321 320 320 319 319 318 316 315 314 312 308 308 306 299 292
295 294 294 295 292 293 295 296 297 297 298 302 306 310 312 313 314 315 316 316 317 317 320 320 320 320 320 321 321 320 320 319 320 318 316 315 316 317 318 318 318 318 317 316 318 319 322 322 323 325 326 326 326 326 326 326 325 324 323 323 323 323 321 321 321 321 321 321 321 321 321 321 319 318 318 317 316 313 313 313 312 310 309 307 296
294 291 292 292 292 293 294 295 296 297 298 299 302 306 311 313 314 314 314 315 316 316 317 319 319 319 319 319 319 320 320 319 318 317 315 315 315 316 315 316 316 316 317 317 317 318 319 316 323 324 325 325 325 326 325 325 325 324 324 323 323 323 322 321 320 320 319 320 320 320 320 320 318 316 316 316 314 314 313 312 311 312 312 309 307
292 292 291 292 293 294 294 295 295 295 295 297 299 301 303 303 307 311 313 314 315 316 316 316 317 318 319 318 318 318 318 318 317 316 315 315 316 316 315 316 314 314 313 315 315 316 317 319 321 323 324 324 325 325 324 324 324 323 323 323 324 323 322 320 319 317 317 317 318 317 317 317 315 315 315 314 314 314 314 313 312 311 310 311 311
293 292 292 292 293 293 294 295 295 295 294 295 295 296 301 304 304 306 307 306 306 309 310 312 313 314 315 313 314 316 316 317 317 316 315 316 316 315 315 313 314 312 314 314 315 314 314 315 317 319 321 322 323 323 324 323 323 323 322 321 322 321 320 319 315 314 316 315 315 314 314 316 316 314 315 314 315 314 313 313 313 312 310 309 308
293 292 292 292 293 292 292 291 291 290 290 291 293 295 298 299 301 303 305 306 306 307 307 310 309 311 310 312 312 312 313 314 314 314 315 315 314 312 314 315 310 313 312 312 313 313 313 314 316 317 319 320 320 321 321 321 320 320 318 316 313 315 315 311 311 312 311 313 313 315 315 314 313 312 313 314 313 313 310 310 310 309 309 307 305
293 292 292 293 292 292 291 288 288 289 289 291 293 292 292 295 299 300 299 302 303 303 306 307 307 309 309 310 310 309 311 310 310 310 311 312 312 312 311 308 309 311 309 311 310 311 310 312 314 315 315 316 317 319 318 319 318 318 318 317 314 313 312 311 309 309 308 311 314 315 315 315 311 311 311 311 312 311 308 307 305 306 308 306 303
292 293 293 292 291 291 290 290 291 291 292 290 290 293 294 293 293 294 298 300 301 303 302 303 304 305 306 306 305 304 304 304 307 307 308 309 308 306 305 307 307 305 301 306 307 307 308 309 310 311 313 313 315 315 315 315 315 315 315 315 316 314 313 311 309 309 311 310 310 310 312 312 309 308 310 311 309 308 305 304 304 302 303 304 298
288 288 289 291 289 288 289 290 292 293 292 292 293 291 291 292 293 292 294 295 294 295 295 297 298 299 298 297 300 299 299 301 304 305 306 305 304 303 299 302 303 299 301 300 303 304 304 305 306 307 308 309 311 311 311 311 315 314 314 314 311 309 309 309 310 310 310 309 310 309 308 308 306 306 307 306 303 302 302 303 303 301 300 300 295
288 289 290 290 288 290 293 293 294 294 291 290 292 293 293 292 291 293 293 292 292 292 293 295 294 295 292 294 295 296 300 300 303 302 302 299 297 296 295 299 298 298 300 299 298 299 301 303 306 307 309 308 308 310 312 311 309 308 308 308 307 307 307 307 308 309 304 308 308 307 309 307 304 304 303 302 301 299 301 301 300 296 295 296 294
290 290 289 292 293 291 290 290 294 293 292 291 291 291 290 289 291 289 290 289 289 287 289 291 290 293 293 293 295 296 299 301 300 299 298 295 294 295 295 295 298 305 298 297 300 298 301 303 303 306 306 307 305 303 304 305 303 302 301 302 302 303 304 306 306 306 307 307 307 307 307 305 303 303 303 303 300 298 296 294 293 292 291 292 292
291 291 292 290 289 292 293 293 293 290 288 289 289 291 289 288 288 288 288 288 287 288 288 291 290 293 294 294 295 296 297 297 296 296 294 294 295 294 296 298 294 298 298 298 296 298 296 298 299 300 300 301 302 300 300 301 302 302 302 302 302 301 302 302 303 304 304 303 304 304 304 302 302 301 302 302 300 297 296 295 294 293 291 291 291
287 289 290 293 294 292 291 291 289 291 289 287 287 288 290 290 292 290 288 287 288 289 289 291 292 293 294 295 295 293 293 293 293 293 294 294 294 293 295 294 293 298 297 296 297 298 296 295 296 298 298 296 297 298 298 299 300 301 299 299 299 300 299 299 298 299 299 299 299 300 300 300 301 301 301 300 299 298 296 294 292 291 291 291 292
289 291 291 292 292 293 292 290 290 287 288 288 287 287 286 288 289 289 288 289 288 290 290 292 292 294 294 290 290 291 293 292 292 294 295 296 296 295 293 292 292 293 293 294 295 295 295 294 293 293 294 294 297 299 298 298 297 296 297 298 299 298 297 298 297 294 293 295 295 295 296 296 296 294 294 296 296 297 297 295 291 291 290 290 289
292 293 292 292 292 291 290 289 288 289 289 289 289 290 291 292 292 289 289 288 289 290 292 292 293 293 290 290 291 292 293 293 294 296 295 294 294 293 293 292 293 292 292 291 291 292 295 295 295 293 292 292 295 296 293 294 295 297 296 297 296 295 295 295 294 293 292 291 293 292 293 292 292 292 292 293 294 294 294 296 294 291 291 290 290
291 291 291 291 290 290 289 289 290 289 290 291 291 292 290 290 290 290 290 289 290 291 292 293 294 292 291 292 293 293 294 294 295 295 293 293 294 292 291 291 291 291 292 291 290 293 292 291 293 293 292 293 294 295 293 295 295 295 295 295 296 295 293 291 291 291 292 291 290 292 291 290 289 289 290 291 292 292 292 293 293 292 292 292 290
291 291 291 291 291 291 291 291 291 291 290 291 292 292 290 292 292 291 291 290 291 293 294 294 293 293 294 295 295 295 294 294 293 294 293 292 291 290 291 291 291 290 290 290 291 293 294 293 293 292 293 293 293 292 294 295 295 295 294 294 294 294 293 292 290 290 289 290 290 290 289 289 289 290 289 289 290 290 291 291 291 291 291 291 292
292 292 293 293 292 292 293 292 291 292 292 292 293 291 292 294 293 293 290 291 293 294 295 295 294 295 295 295 295 295 294 293 293 293 292 291 290 290 290 290 291 291 289 290 292 292 292 290 291 292 292 291 290 291 293 294 294 295 295 293 292 293 291 290 290 289 290 290 289 289 289 288 288 287 287 288 289 289 288 289 289 289 289 290 292
291 292 293 294 293 292 292 292 293 293 293 293 292 294 295 292 291 289 291 292 293 294 296 296 295 295 295 295 294 294 293 293 292 291 291 291 290 291 290 290 290 289 290 290 290 290 290 290 290 292 292 290 290 290 293 294 294 294 294 294 293 291 290 290 289 289 289 289 288 288 288 289 287 287 288 288 288 288 288 288 288 288 288 287 288
294 293 292 292 293 292 290 289 291 293 293 291 291 293 291 290 291 292 292 293 293 294 295 296 295 295 294 294 294 293 292 292 291 291 291 291 291 290 290 290 290 290 290 290 290 290 290 289 289 289 289 290 290 291 293 293 293 294 294 294 291 291 290 289 288 289 289 288 288 289 288 289 287 287 287 287 287 287 287 286 286 286 286 285 285
298 297 296 294 292 292 293 293 294 293 292 292 293 293 292 292 290 292 291 292 293 293 294 294 295 294 294 294 293 292 292 291 291 290 290 291 290 291 290 289 289 289 289 289 289 289 289 289 288 288 289 290 290 291 292 292 293 294 295 291 289 289 289 288 288 288 287 287 287 288 289 288 287 287 286 288 287 286 286 286 286 285 283 282 281
300 299 299 300 299 296 295 293 291 289 290 292 293 291 292 290 290 291 290 290 290 292 293 294 294 294 293 293 293 292 292 291 291 290 290 290 290 290 290 289 289 289 289 289 289 288 289 289 288 288 289 289 289 290 291 291 292 294 292 289 289 288 289 289 288 287 288 287 288 288 288 287 287 286 287 289 289 287 285 285 285 284 283 279 281
300 300 300 300 299 294 291 292 291 289 290 291 289 291 291 290 290 289 289 289 290 292 292 292 293 293 293 293 293 292 291 291 290 290 290 291 290 290 290 289 290 289 289 289 289 288 287 288 288 288 289 289 289 288 290 291 292 293 291 289 289 289 287 288 287 286 286 286 286 286 286 287 287 286 287 289 290 287 285 285 284 281 279 278 279
298 299 300 299 297 295 292 288 287 288 289 290 290 290 291 291 290 289 289 290 290 292 292 292 293 293 293 293 293 292 292 291 290 291 291 290 290 290 290 288 290 290 289 289 288 288 287 287 287 288 287 288 288 288 289 291 292 292 290 289 288 288 288 287 287 285 284 284 284 285 285 286 286 286 288 289 290 287 285 284 282 279 278 278 279
296 296 296 297 296 291 289 288 288 290 290 289 289 290 291 291 291 289 289 290 291 293 294 294 293 291 291 292 292 291 291 290 290 290 290 290 290 290 289 289 289 290 290 289 288 288 287 287 287 287 287 288 288 288 287 290 291 292 291 288 288 288 288 287 286 286 285 284 283 283 285 287 288 288 288 289 289 289 285 283 282 281 281 283 280
297 297 294 294 293 293 293 291 291 290 287 287 289 290 290 291 290 289 290 291 293 294 293 291 289 289 290 291 292 291 291 290 290 290 290 289 290 290 289 288 289 289 289 289 288 287 288 287 287 287 287 287 288 288 287 289 291 292 291 289 287 288 288 288 287 286 286 285 284 283 283 285 288 288 288 289 289 290 288 284 283 282 283 282 278
296 294 292 292 291 290 290 289 287 287 286 287 289 290 290 290 289 290 291 293 293 292 289 289 289 289 290 290 290 290 290 290 289 289 289 289 289 289 288 288 289 289 288 288 287 287 287 287 287 287 287 287 287 287 287 288 290 291 291 290 288 288 288 287 286 286 285 285 285 284 283 284 286 288 288 289 289 289 290 285 283 286 286 285 280
295 294 293 291 291 291 290 288 287 286 286 287 289 289 290 289 290 291 292 293 292 289 288 288 288 288 288 289 289 289 290 290 289 289 289 289 289 288 288 288 288 288 288 287 287 287 287 287 287 286 286 286 286 286 286 287 288 290 291 291 290 288 290 287 287 286 286 286 285 284 284 284 286 287 288 288 289 289 289 286 287 287 286 286 283
288 288 288 290 291 289 289 288 287 285 286 287 289 289 289 289 290 292 291 290 287 287 288 287 287 288 288 288 288 289 289 289 289 289 289 289 288 288 288 288 288 288 288 288 288 287 287 287 287 287 286 286 286 286 286 286 287 289 291 291 291 290 290 287 287 287 286 285 284 284 284 285 286 286 287 288 289 288 285 288 289 288 287 285 280
289 291 290 288 292 292 290 288 286 285 286 287 288 289 289 289 291 291 291 290 289 288 287 287 287 287 287 288 288 288 289 289 289 289 289 289 288 288 288 288 288 289 289 289 288 287 288 287 287 287 286 286 286 286 286 286 286 286 289 291 291 290 290 289 286 286 285 285 285 286 286 286 286 286 287 287 288 287 288 288 288 288 283 278 277
287 287 288 289 289 287 287 289 289 286 287 287 288 289 289 290 291 291 291 289 288 288 287 288 287 287 287 287 287 288 288 288 288 289 289 290 289 289 290 289 289 289 289 290 289 288 288 287 287 287 287 286 286 285 285 286 285 285 286 288 289 289 288 287 286 285 284 286 286 286 286 286 285 285 283 280 279 278 285 285 286 285 277 276 274
290 291 289 289 288 289 289 288 289 289 287 287 287 288 289 291 290 289 288 288 288 288 288 288 287 287 287 287 287 288 289 288 288 289 290 290 290 289 290 289 289 290 289 290 290 288 288 288 288 287 287 286 286 285 285 285 285 284 285 284 286 286 286 286 284 282 283 282 284 283 283 284 283 283 281 282 280 279 275 274 271 273 274 274 273
289 290 289 288 288 289 289 289 289 290 288 287 287 287 288 288 288 285 287 287 288 287 288 288 287 287 287 287 288 287 288 289 289 289 289 290 290 289 290 290 289 290 290 290 289 289 289 289 289 288 287 286 286 285 284 284 283 282 281 279 280 280 282 281 279 275 275 276 278 280 278 274 275 274 272 270 269 270 271 272 270 270 272 272 276
288 289 287 288 289 288 289 289 290 290 288 287 287 287 287 287 287 284 285 287 287 287 287 287 286 286 286 287 287 288 288 289 289 289 290 290 290 290 290 290 290 291 291 291 290 290 289 290 290 289 287 286 286 285 285 285 282 283 280 278 276 278 276 274 277 278 273 273 273 273 273 271 270 271 269 267 267 268 270 269 269 270 272 275 277
288 286 283 284 285 287 288 288 289 289 286 287 287 287 286 285 284 284 285 287 287 286 286 286 286 286 286 286 287 287 288 288 288 288 289 289 287 288 289 290 289 287 288 289 289 290 289 289 289 288 288 289 288 286 285 284 284 284 284 283 282 281 281 277 281 283 277 271 270 271 269 269 268 268 268 268 268 266 267 267 267 273 271 273 276
287 285 285 283 284 283 284 285 287 287 285 286 286 286 283 282 283 285 286 287 287 286 286 286 285 286 286 287 287 287 288 288 288 288 289 288 287 287 287 287 287 287 287 287 288 288 287 288 288 285 282 286 286 286 286 285 285 285 285 285 284 284 284 284 285 279 272 272 270 272 268 268 268 266 268 267 268 268 269 268 268 268 268 271 274
Wind_Speed
12 13 12 12 14 14 12 11 11 10 11 11 11 12 13 14 12 13 11 10 10 10 10 10 10 8 7 10 12 9 9 9 9 9 9 9 10 10 9 9 9 9 9 9 9 9 8 8 8 7 6 6 7 9 8 8 8 8 7 5 7 7 5 4 3 1 1 5 3 5 6 4 4 3 5 5 5 5 4 6 5 5 5 5 4
6 7 9 7 9 9 9 9 9 12 12 12 14 16 15 13 13 13 10 11 12 12 11 10 10 11 10 11 9 9 9 9 10 9 10 9 9 10 10 9 10 10 9 9 9 9 9 8 8 8 7 7 8 7 6 6 6 6 5 5 4 8 7 5 4 4 2 5 4 4 3 5 4 3 4 5 5 4 5 6 6 6 6 5 3
8 11 9 9 10 10 10 11 12 15 15 16 16 14 13 13 14 12 11 12 12 12 11 12 10 9 9 8 10 8 6 8 9 8 7 9 10 10 10 10 10 10 10 9 9 9 9 9 8 7 7 7 7 7 7 8 7 8 8 9 6 4 5 2 5 8 6 2 1 1 3 3 5 3 3 4 4 4 5 5 5 6 7 5 5
13 13 13 11 10 11 10 11 13 12 12 11 12 15 13 13 13 13 13 12 12 13 13 11 10 9 8 7 6 8 7 7 6 6 7 9 11 10 10 11 11 10 9 9 9 9 9 10 8 7 8 7 8 9 8 10 8 8 8 9 7 6 4 6 5 7 6 5 3 4 2 1 6 4 4 4 2 4 6 5 4 5 4 4 4
14 14 12 9 9 11 13 13 10 12 13 14 14 14 12 15 15 15 13 13 12 11 12 9 7 5 5 2 1 3 1 3 4 8 10 10 9 10 13 9 9 10 9 10 9 10 9 9 9 8 8 8 8 9 9 10 9 8 9 8 9 10 9 4 4 6 8 7 6 3 2 1 5 4 2 5 0 2 3 4 5 5 6 6 6
13 15 15 12 12 10 10 11 12 13 14 14 13 15 14 13 13 12 11 11 12 13 12 10 10 10 8 9 9 8 9 8 12 15 11 11 13 9 5 9 9 9 9 9 9 9 9 9 9 8 8 8 8 9 8 7 8 8 8 8 9 8 9 5 4 4 7 8 8 9 6 6 2 2 1 4 1 1 2 3 4 4 4 5 5
12 12 11 8 9 9 10 12 14 15 15 12 12 13 13 12 12 13 13 11 11 10 12 11 10 10 14 14 12 12 12 12 11 8 8 8 6 8 8 5 8 9 9 8 8 8 8 8 8 9 8 8 7 8 9 9 8 8 6 7 9 8 6 9 9 6 2 6 7 8 4 3 3 5 7 1 3 1 1 3 3 4 4 4 6
12 14 15 13 11 13 15 16 13 15 13 11 12 11 14 14 13 14 12 12 11 10 12 13 13 13 12 12 11 12 13 14 10 9 5 4 7 8 6 6 6 8 9 8 8 8 8 8 8 8 9 8 7 8 9 8 7 5 7 8 8 7 8 10 9 6 8 6 7 9 8 5 3 3 2 7 6 3 3 0 1 5 5 6 7
14 14 15 15 15 14 13 12 14 13 11 12 13 13 13 14 14 12 12 11 10 12 13 14 14 13 12 11 11 12 12 10 4 4 6 6 7 6 7 7 6 7 8 8 8 9 8 8 8 9 9 9 8 8 7 7 8 7 7 7 8 9 9 10 9 9 8 9 5 7 8 9 8 8 5 5 8 7 5 5 3 0 2 5 8
11 14 15 14 12 12 12 10 7 12 13 12 12 11 12 11 12 12 13 11 11 12 13 14 14 11 11 12 15 14 10 6 4 6 6 6 9 8 6 6 6 6 7 8 8 8 9 8 9 10 10 9 8 9 8 8 8 8 9 9 9 10 9 10 11 10 9 9 10 9 8 7 7 4 3 4 2 4 7 6 7 8 6 9 7
10 11 12 12 9 8 6 10 12 8 8 9 10 11 10 10 12 13 14 12 11 13 13 14 13 12 13 14 16 15 12 9 8 9 7 7 9 8 7 6 6 7 6 7 8 8 8 9 9 10 9 9 9 9 9 9 9 9 9 10 10 11 9 10 11 12 10 10 11 11 12 12 11 12 11 7 7 3 3 4 5 9 12 7 8
8 8 10 11 10 7 6 10 10 10 7 9 10 8 9 10 10 13 12 12 11 12 12 13 13 14 14 15 15 16 12 11 13 14 11 11 10 8 5 5 6 6 7 7 8 9 9 9 10 10 10 10 10 9 9 9 9 9 9 10 11 13 13 11 11 11 12 11 11 10 10 9 9 10 10 9 10 11 11 10 8 3 2 6 1
5 8 9 9 10 10 9 10 8 8 11 12 11 10 10 10 12 14 14 13 13 12 14 15 14 15 15 15 15 13 12 14 14 13 10 10 8 8 7 8 6 7 8 9 9 10 10 10 9 9 9 9 10 9 9 10 9 9 9 9 10 11 10 11 10 14 15 14 12 11 12 13 13 10 8 10 10 8 8 10 5 5 8 5 5
7 8 9 10 10 10 10 10 10 10 11 11 11 11 11 11 12 14 15 13 12 12 14 14 16 16 15 15 14 12 12 13 12 12 10 8 7 9 9 8 8 10 9 10 9 10 9 9 10 10 9 9 9 10 10 10 10 9 9 9 9 9 9 13 14 14 13 15 12 10 10 10 11 11 11 7 7 5 6 8 7 5 5 4 2
8 8 10 11 11 10 9 10 9 9 9 9 9 11 10 11 12 14 13 11 12 13 12 15 15 15 14 14 13 11 12 11 12 10 8 8 7 8 8 7 9 9 9 9 8 9 10 10 10 10 10 10 10 10 10 10 10 9 9 10 9 6 6 7 8 10 11 11 11 10 9 8 7 6 6 7 7 9 9 9 8 7 3 2 3
7 7 9 10 8 6 6 6 7 7 8 8 9 10 11 12 12 14 15 14 14 14 14 15 15 13 14 14 14 12 11 9 9 7 7 7 7 8 8 9 9 8 8 6 8 9 9 10 10 11 10 10 10 11 11 10 10 10 9 10 11 8 10 12 10 8 9 10 10 11 12 12 11 11 12 12 11 10 11 8 7 9 10 7 4
9 8 8 7 4 6 6 6 6 7 7 10 12 11 13 12 11 13 12 10 12 14 15 13 13 12 13 12 11 10 11 12 12 9 7 6 7 8 9 9 8 8 6 7 8 8 9 9 10 10 11 10 10 10 11 11 11 11 9 8 10 11 10 9 9 9 8 8 9 11 11 10 8 6 7 8 8 6 7 8 9 11 11 9 5
7 5 5 5 5 6 6 6 7 9 11 10 11 11 11 12 13 14 13 14 12 11 12 12 12 12 11 11 11 11 11 11 9 8 6 7 8 8 7 8 9 8 8 7 8 8 8 9 9 10 9 10 11 10 10 10 9 8 11 10 8 8 11 11 11 9 6 6 7 8 8 9 7 7 7 7 7 8 9 9 10 10 8 10 9
8 7 5 6 7 8 8 9 8 7 7 8 8 7 7 7 7 10 13 13 13 12 11 10 9 9 9 11 11 10 9 8 7 7 7 9 10 9 9 9 6 7 7 7 7 8 8 9 9 10 9 10 10 10 9 9 9 8 7 9 10 8 9 9 6 8 8 7 7 8 7 7 5 6 7 7 9 10 10 10 9 8 9 12 12
8 6 6 6 7 7 8 9 9 9 8 8 6 5 8 9 8 9 7 6 6 7 7 9 9 8 8 6 6 7 8 9 9 9 9 11 10 9 9 7 9 7 8 8 8 9 8 8 8 9 9 9 9 8 9 9 9 9 7 7 9 10 10 9 6 4 4 5 6 7 8 8 7 7 7 8 10 10 9 9 10 9 10 10 8
8 6 6 6 6 6 6 5 5 4 4 4 5 8 8 6 7 7 9 8 8 8 7 8 7 8 7 9 8 7 9 8 8 9 10 10 8 8 9 9 5 9 8 8 8 8 8 9 9 9 9 9 8 8 7 6 7 7 7 6 4 5 6 5 4 5 5 6 7 9 10 9 8 8 9 9 10 10 8 8 7 7 8 8 8
7 6 6 6 6 6 5 3 2 3 4 5 5 4 5 7 8 7 5 6 7 7 9 8 7 8 9 9 9 7 8 7 8 7 9 9 9 9 8 6 8 8 7 8 8 7 7 8 8 8 7 7 7 7 7 7 8 9 9 8 6 7 7 6 5 6 4 5 7 9 10 11 8 9 9 9 9 8 7 7 6 8 10 9 8
7 8 7 7 6 5 4 4 4 5 5 5 4 6 7 6 5 5 7 8 8 8 6 6 7 8 9 8 7 7 6 6 8 8 9 10 8 6 6 8 8 6 5 6 7 7 7 7 6 6 6 6 7 7 6 6 7 7 7 7 8 8 8 8 6 6 7 7 7 8 9 8 5 6 8 9 8 8 6 8 8 8 8 8 7
5 5 5 6 5 5 5 5 5 6 6 7 6 5 4 5 6 5 8 7 6 5 5 5 5 6 5 5 7 6 6 7 9 9 10 8 6 5 4 5 5 4 5 5 5 5 5 5 6 5 5 5 5 6 6 6 7 7 8 8 6 6 6 6 7 6 6 7 8 7 7 6 6 7 7 6 5 4 6 7 9 8 9 9 6
5 6 7 6 5 7 7 6 7 7 5 5 6 6 5 5 5 7 6 5 5 5 6 6 6 7 6 6 6 6 7 8 9 7 7 5 4 3 3 4 4 4 5 4 4 4 4 5 6 6 6 5 5 5 6 6 6 5 6 5 5 5 4 5 5 6 6 6 5 6 7 6 5 7 6 6 6 7 8 7 8 6 6 6 5
6 6 5 8 10 6 5 6 8 7 5 5 4 4 4 4 5 4 5 5 5 4 5 5 5 7 7 7 7 7 9 10 8 5 5 4 3 4 4 4 5 5 4 4 4 4 4 5 5 6 5 6 5 4 5 5 4 4 4 4 4 4 4 4 5 5 6 5 6 6 5 5 5 6 7 7 6 6 5 4 5 4 4 5 6
7 7 6 3 4 9 10 8 6 5 5 5 5 5 5 5 4 4 4 4 4 5 4 5 5 6 6 8 8 8 7 5 4 4 3 4 4 4 4 4 4 4 4 4 4 3 3 3 4 3 3 4 4 4 4 4 4 4 4 4 4 5 5 6 5 4 4 4 4 5 5 4 5 6 7 7 7 5 5 6 6 5 4 5 6
3 4 6 9 10 7 7 7 6 7 5 5 4 5 5 6 7 6 5 4 5 5 5 5 6 6 7 8 6 4 4 3 3 3 4 4 4 4 5 4 4 4 4 4 3 3 3 3 4 4 4 4 3 4 4 4 4 5 6 5 4 5 5 4 4 4 3 3 3 3 4 4 4 5 5 6 5 7 4 5 4 4 5 5 7
5 7 7 8 9 9 7 6 7 5 6 5 5 5 4 5 5 5 5 6 6 6 6 6 6 8 7 5 4 4 4 4 4 4 5 5 5 4 4 4 3 3 3 3 3 3 3 3 3 3 3 3 4 4 4 5 5 3 2 3 5 5 4 4 4 4 4 4 4 3 3 3 3 6 8 7 7 6 5 6 3 4 4 4 3
8 9 9 8 9 6 5 4 5 6 6 6 6 7 8 9 8 6 6 5 6 7 7 7 8 7 5 5 5 4 5 4 5 6 6 5 5 4 4 4 3 3 2 2 3 4 4 4 4 3 3 3 4 3 4 5 5 3 3 3 3 3 4 4 5 5 4 4 3 3 2 2 3 4 5 5 6 7 7 6 4 5 6 5 5
7 7 8 7 6 6 5 6 7 7 9 8 9 8 6 6 6 6 8 7 7 7 7 8 9 6 6 5 5 5 6 6 6 6 5 6 5 4 4 4 4 4 4 4 4 5 4 4 4 4 4 4 4 4 6 6 6 6 4 4 4 4 3 4 4 4 4 4 2 0 0 2 2 3 3 3 4 4 4 4 4 7 6 6 5
8 7 6 7 8 8 8 10 10 9 8 9 10 9 6 10 9 9 8 7 8 8 9 9 7 6 6 7 6 6 7 7 7 8 6 5 4 4 4 5 5 5 5 4 6 6 5 5 5 5 5 5 5 6 6 6 7 7 7 4 4 3 3 3 3 3 3 3 2 0 1 1 0 1 1 1 1 2 1 1 1 3 4 5 4
8 8 8 9 10 11 11 10 7 9 10 13 11 6 11 12 10 9 7 9 10 9 8 8 7 8 7 7 7 7 7 7 8 6 5 4 5 5 6 6 7 5 4 5 6 6 6 5 6 6 6 6 5 6 7 8 7 6 7 6 4 3 3 3 2 2 2 1 1 1 1 1 2 3 2 1 1 1 3 3 2 2 4 6 6
8 9 10 10 8 8 9 9 9 10 12 11 8 13 12 7 5 5 9 8 9 9 9 9 8 8 8 7 7 8 8 8 6 5 5 6 6 7 6 5 5 5 6 6 5 6 5 6 6 7 6 5 5 7 8 8 7 7 7 6 3 3 4 3 4 3 2 2 2 3 2 1 0 1 1 2 2 2 2 2 1 2 3 3 4
11 11 11 11 11 9 8 8 11 14 11 7 8 11 6 5 8 9 9 9 9 10 10 9 9 8 8 8 9 9 9 8 7 7 7 7 8 6 7 7 6 7 7 7 6 6 6 5 6 5 5 5 6 7 8 7 6 6 7 6 3 3 3 3 3 3 3 4 4 4 4 4 3 3 3 3 3 2 2 1 1 2 2 1 1
14 13 15 12 11 14 15 15 13 9 7 8 12 7 8 9 6 8 8 8 9 9 9 7 9 10 10 10 10 10 9 8 8 8 9 9 9 9 9 7 6 5 4 4 5 4 6 5 5 4 4 5 5 7 7 7 8 8 8 5 4 4 3 3 3 3 3 3 4 5 4 4 3 3 3 5 4 4 2 2 2 3 3 1 0
15 13 15 17 16 14 14 9 4 5 7 10 9 7 8 6 8 9 8 8 7 9 10 11 12 10 11 11 11 11 10 10 10 10 11 11 11 11 8 6 7 7 6 6 6 5 5 6 5 5 5 4 4 5 7 7 8 9 8 5 5 4 4 3 3 3 4 4 4 4 4 4 4 4 6 7 7 6 2 2 2 3 3 2 4
14 14 16 17 14 7 6 7 8 7 9 7 6 7 8 9 8 7 8 8 9 12 12 11 13 13 12 12 12 12 11 11 11 13 14 11 9 6 8 7 9 8 8 7 6 5 4 4 5 6 6 5 4 5 7 7 8 10 8 6 5 5 4 4 3 2 2 2 2 5 5 4 5 4 6 6 7 6 3 2 2 2 3 4 5
13 17 18 17 14 14 9 5 6 8 11 10 9 9 9 10 9 8 8 9 12 13 12 13 15 14 12 12 12 12 12 12 13 14 12 11 12 11 7 7 6 6 6 6 5 5 4 4 4 5 6 6 4 5 7 7 9 10 7 5 5 5 4 4 4 3 2 2 3 4 7 6 4 3 5 5 7 6 3 3 3 1 3 5 4
17 14 14 17 14 7 4 7 9 14 9 8 9 9 11 11 11 10 10 12 15 17 17 16 10 7 9 10 11 12 12 13 14 11 10 11 8 7 8 9 7 6 6 6 5 5 6 5 5 5 5 5 5 4 4 7 7 9 9 5 4 5 5 5 4 4 4 2 3 3 4 5 5 5 5 6 7 8 5 3 4 4 4 6 2
17 17 17 12 12 10 12 11 11 8 4 6 8 9 11 11 10 11 14 16 17 16 12 9 6 7 9 11 10 12 14 12 9 9 8 7 8 9 8 9 9 7 6 6 7 6 5 5 5 4 5 4 5 5 5 7 7 8 10 8 4 5 4 4 4 4 3 3 3 3 2 4 6 6 6 7 7 9 7 5 5 6 6 2 5
11 10 7 7 8 8 9 9 6 2 4 6 8 10 11 9 9 13 17 17 15 11 6 7 9 10 10 10 11 10 9 9 8 8 10 10 8 7 8 8 7 7 8 8 7 6 6 5 5 4 4 5 4 6 5 7 8 8 9 9 5 5 4 5 4 3 3 3 3 3 4 5 7 7 7 8 8 8 9 5 6 8 5 5 3
12 9 8 4 7 8 8 7 4 4 5 7 9 10 10 9 12 17 15 13 13 7 6 7 8 9 10 11 10 11 11 9 10 10 10 10 8 9 8 8 8 8 9 9 8 7 7 6 5 5 4 5 4 5 7 5 7 7 9 10 9 5 5 4 5 5 5 5 4 4 4 6 8 7 8 8 8 9 7 5 8 8 7 6 5
5 4 5 2 6 6 6 7 7 6 7 8 12 12 11 11 16 14 9 9 4 5 7 8 8 9 9 9 10 11 10 9 10 10 10 9 10 9 9 9 9 9 9 9 8 8 7 8 8 7 6 5 4 4 5 7 6 8 8 10 9 7 7 4 4 4 4 4 4 4 4 6 7 6 7 7 7 6 4 6 7 7 7 6 4
6 8 6 6 9 10 7 7 5 5 6 8 9 11 12 13 14 10 11 12 10 9 9 9 9 9 10 9 9 9 10 10 10 11 11 11 11 10 10 9 9 9 9 9 9 8 9 9 8 8 7 6 5 5 4 5 7 6 7 7 8 8 8 7 4 3 3 4 4 6 6 6 6 5 4 4 3 4 5 5 4 5 5 3 3
6 6 6 7 6 5 6 8 8 7 8 8 9 10 12 14 11 10 12 7 8 8 9 11 10 10 10 9 10 9 9 10 10 9 11 9 11 11 11 10 9 9 9 10 9 9 9 9 9 7 7 7 6 5 5 4 4 5 5 6 7 7 8 8 6 5 6 6 6 6 6 5 4 2 1 1 0 0 2 2 1 2 2 3 3
7 10 8 6 6 7 8 9 10 9 9 9 10 10 13 11 9 7 6 7 9 11 11 9 10 9 8 9 11 10 9 9 10 9 9 9 9 9 9 10 10 11 10 10 10 10 10 9 9 8 7 7 7 6 6 5 5 5 4 4 4 4 5 6 4 3 5 4 4 3 4 5 5 6 5 5 5 3 3 3 3 2 1 2 3
8 9 6 6 6 8 9 9 11 12 6 8 7 10 10 10 7 3 5 7 9 10 12 12 12 10 9 10 11 12 12 10 10 11 11 11 10 10 11 13 15 15 14 13 12 12 12 12 11 8 7 7 7 7 7 8 7 6 5 4 4 5 5 5 5 4 4 4 5 5 6 4 5 5 4 4 4 3 3 3 2 2 2 3 3
6 8 6 8 8 9 10 8 12 10 7 7 9 10 9 8 7 5 6 8 9 9 9 7 6 7 8 8 9 10 11 11 11 11 10 10 11 12 12 9 6 5 8 11 11 10 9 8 7 9 10 9 8 9 9 6 8 9 8 7 5 5 5 5 6 8 6 4 5 5 5 4 4 3 3 2 2 2 2 2 2 2 2 3 3
7 5 5 6 8 8 8 9 11 9 6 7 8 9 7 6 5 6 7 8 9 7 7 8 8 8 8 8 8 8 7 7 7 8 8 7 5 7 7 7 7 6 7 7 7 7 6 6 7 6 7 10 10 5 10 12 11 12 11 11 9 8 7 6 9 11 6 5 4 5 3 5 3 4 2 1 1 1 1 1 2 2 2 2 2
8 6 7 6 7 6 7 8 12 8 6 7 8 8 6 6 6 7 9 9 7 8 8 8 8 10 11 10 9 8 9 9 8 8 8 9 5 4 5 7 8 7 7 8 9 9 10 10 8 6 2 4 10 12 12 11 12 11 11 10 9 9 9 10 12 8 4 5 4 6 3 3 3 3 2 1 1 1 0 0 0 0 0 1 2
Wind_Direction
229 228 228 219 216 215 214 208 210 208 208 203 201 205 204 202 194 206 200 192 191 194 196 194 196 199 209 208 214 208 210 209 212 212 212 214 212 210 211 213 212 213 215 211 215 216 219 218 217 220 210 205 212 221 220 222 219 217 226 219 228 240 250 224 240 149 286 294 291 276 288 254 245 239 229 219 219 208 169 179 165 164 183 184 185
258 255 241 235 228 220 209 208 203 205 212 202 204 206 206 202 201 206 189 195 199 197 195 197 201 199 197 208 210 210 208 207 218 214 216 217 215 213 213 213 213 213 210 212 215 213 218 219 217 219 210 214 219 224 226 225 223 220 213 239 213 224 240 203 203 126 244 227 273 315 319 301 268 236 234 230 205 195 185 177 173 180 184 184 165
238 243 241 229 226 219 206 208 209 210 207 203 207 204 204 202 208 201 197 196 201 198 193 204 201 202 198 206 201 214 218 215 221 217 211 218 219 217 216 216 215 217 212 210 214 215 219 219 220 217 216 211 219 226 222 227 217 219 208 217 230 229 239 215 190 187 225 147 141 346 286 334 329 333 281 240 202 184 170 186 181 188 190 175 167
241 238 235 226 217 216 208 210 212 209 211 212 210 207 205 207 205 202 201 199 199 200 202 202 197 199 207 204 206 202 203 207 214 218 213 216 224 218 222 218 215 218 214 213 215 217 215 219 218 216 219 209 215 223 221 226 219 220 215 220 215 241 215 239 193 198 183 134 276 218 227 123 302 277 274 285 204 185 177 189 172 194 176 150 156
235 242 240 228 217 217 210 212 206 208 211 209 205 207 207 207 206 201 200 200 202 198 199 190 181 189 193 173 152 219 276 186 208 229 221 219 224 218 223 214 218 219 215 215 213 218 217 218 217 218 217 213 210 222 224 223 221 220 215 217 211 222 238 231 229 191 206 206 177 99 3 307 230 253 7 279 66 152 219 178 184 177 176 184 190
231 236 234 224 217 219 216 212 207 212 213 211 206 208 207 208 205 203 202 201 202 199 191 183 189 188 179 193 203 205 216 208 215 219 212 214 220 224 223 209 215 220 217 217 216 215 219 218 219 219 219 217 214 223 229 228 225 219 214 216 225 221 233 231 241 225 215 216 224 221 190 218 191 241 104 276 317 229 161 181 189 193 175 188 205
237 246 247 230 218 214 219 215 212 212 216 207 207 210 211 210 203 200 201 203 200 193 184 186 191 197 199 203 207 207 216 225 225 225 218 223 223 222 220 205 211 216 221 218 218 216 219 220 219 221 223 222 219 224 229 227 227 223 209 212 222 217 211 238 231 221 219 246 237 245 264 233 170 149 234 82 314 305 142 170 189 170 170 185 203
235 235 237 232 222 207 215 213 210 215 211 202 208 207 206 207 202 202 203 201 194 187 184 189 196 200 204 210 211 216 216 228 213 222 217 203 210 220 214 212 205 210 216 217 217 215 214 219 217 222 223 224 216 223 229 228 227 223 207 214 217 211 210 224 236 208 208 225 202 232 239 230 236 293 196 221 232 240 254 257 80 176 171 199 211
229 234 235 229 223 220 220 216 215 212 206 204 206 205 205 205 204 201 203 199 194 186 188 194 200 200 203 206 217 224 225 232 201 204 209 202 218 210 210 210 204 206 210 213 213 216 210 213 215 221 221 223 214 226 227 221 220 217 213 209 212 215 211 219 225 226 209 227 176 225 228 232 229 226 230 206 212 223 244 177 209 351 220 224 220
237 236 240 237 230 227 222 223 214 211 209 207 207 205 206 202 201 199 203 198 195 191 191 195 199 198 202 209 217 225 220 224 190 215 212 198 222 214 208 206 203 205 207 210 212 211 212 209 215 220 222 222 215 224 225 222 220 219 219 217 216 221 217 215 221 226 219 220 213 214 212 229 237 248 230 220 269 214 234 207 193 183 203 229 204
238 239 244 248 240 226 211 211 218 215 210 205 208 206 202 199 199 201 204 198 193 194 190 195 196 198 208 211 216 224 218 210 214 227 212 208 221 215 209 209 200 208 197 210 211 207 212 210 214 221 222 221 220 222 224 223 221 222 224 221 220 220 222 221 223 228 226 224 220 219 224 216 218 220 222 211 217 222 251 253 210 199 208 223 219
237 237 245 243 246 231 201 215 213 210 195 203 208 200 198 200 197 202 204 199 194 193 191 197 195 203 210 212 217 221 213 210 217 226 215 219 219 218 206 204 210 207 207 209 209 206 211 215 215 218 221 221 223 222 224 221 221 220 222 222 224 220 218 214 221 229 230 232 228 224 229 228 230 229 223 208 208 222 215 227 218 184 292 241 271
250 241 240 242 235 226 211 216 208 201 201 201 198 193 196 198 197 199 205 198 194 189 194 198 198 204 208 212 218 218 213 216 221 227 218 219 213 214 197 211 204 213 213 216 214 206 212 219 217 218 221 219 222 220 222 221 219 217 219 223 228 231 230 225 222 219 217 220 224 221 223 224 227 229 228 222 225 229 215 232 225 162 216 219 216
244 238 237 235 229 227 215 210 205 205 205 198 195 194 196 198 199 201 209 196 195 192 196 197 204 207 208 212 216 213 216 218 224 225 218 213 204 210 206 207 208 215 212 216 209 209 212 217 220 223 221 219 217 222 224 223 223 227 230 234 236 238 236 233 233 232 228 224 224 228 222 222 225 219 221 212 209 201 228 226 224 212 217 231 51
244 246 235 231 228 218 213 210 208 206 201 198 196 199 195 201 199 205 208 200 197 198 196 202 206 209 210 212 216 211 217 217 224 222 212 207 202 203 206 203 213 217 213 217 206 209 214 216 219 224 226 226 225 226 229 232 233 233 231 233 235 235 248 256 247 242 242 240 232 229 232 237 243 230 218 222 213 211 212 217 212 220 260 238 245
256 241 249 243 233 221 218 213 210 203 202 201 200 198 198 204 202 205 205 198 196 198 201 202 207 207 210 211 214 212 216 219 226 215 213 198 196 199 209 210 216 216 216 206 210 206 213 217 218 223 224 225 226 226 227 228 229 231 230 225 228 226 239 245 256 250 242 236 230 227 226 228 219 212 207 213 210 209 210 205 189 207 224 242 214
253 243 242 250 247 236 220 212 205 204 201 204 204 198 200 200 201 208 210 204 202 204 204 203 207 206 211 212 213 211 213 215 218 213 204 192 194 205 211 215 215 214 211 204 210 210 214 214 219 221 222 224 226 225 226 225 223 222 224 228 229 225 226 237 242 244 245 245 247 242 239 237 229 218 220 226 227 215 213 211 202 208 211 229 202
250 255 249 241 225 225 225 225 214 205 203 205 209 205 205 202 200 203 204 204 207 203 207 206 207 209 211 211 213 211 212 216 213 208 192 193 210 213 212 217 214 208 207 209 208 214 216 216 221 223 223 224 225 227 226 226 226 227 226 226 225 220 223 228 228 226 233 236 239 247 248 245 227 203 206 208 211 210 216 211 214 215 205 217 222
260 251 246 236 221 221 219 220 221 218 214 213 213 206 211 213 212 208 207 206 204 203 205 209 208 209 210 210 208 209 209 210 207 203 193 205 214 212 213 218 212 207 211 212 212 216 215 217 219 224 223 223 223 225 224 228 230 236 231 233 229 228 235 236 221 216 226 220 226 233 228 236 221 220 210 212 219 218 220 217 217 210 207 217 226
242 250 246 236 229 221 216 219 218 216 214 214 206 196 207 210 204 212 218 211 205 204 199 205 206 205 209 203 207 202 202 204 204 199 205 213 215 209 215 215 215 205 212 211 215 215 213 217 217 221 225 225 224 225 222 223 224 227 234 237 231 225 227 225 222 223 232 224 234 240 233 228 213 204 215 224 228 227 223 220 221 213 214 220 227
230 238 246 246 244 237 231 229 235 246 232 214 202 203 209 199 210 208 204 205 203 203 192 208 190 205 200 203 204 197 203 203 204 203 210 216 213 211 215 215 202 217 207 215 217 216 214 216 216 218 221 222 223 227 220 222 231 235 236 237 232 224 229 230 214 230 230 231 235 242 243 236 224 218 219 222 224 225 215 217 220 217 219 205 185
222 225 234 245 248 256 261 262 254 229 225 211 216 203 197 201 210 201 204 207 199 199 200 198 194 198 200 204 205 202 204 199 202 201 212 212 213 213 211 203 215 219 203 216 216 215 215 215 217 219 220 222 224 227 222 220 224 228 237 232 227 225 224 227 223 238 249 248 244 244 244 240 218 219 227 229 231 228 214 214 203 215 224 217 207
216 221 227 234 241 251 263 263 237 222 224 210 204 204 207 206 194 196 197 214 200 205 199 189 194 198 205 205 198 201 192 196 199 206 214 214 214 213 202 209 216 216 213 217 216 212 213 212 214 218 217 219 222 222 219 220 226 229 236 236 230 228 228 228 225 230 234 239 241 240 244 242 233 230 234 238 234 230 213 207 206 203 218 223 205
237 243 250 245 250 274 285 264 243 234 222 210 204 203 200 197 197 187 208 210 204 200 187 188 197 206 200 190 199 191 187 199 205 210 213 213 207 211 197 210 209 199 206 223 221 215 215 210 212 215 215 217 220 220 220 219 225 226 235 241 237 225 221 223 229 239 240 235 235 241 246 245 239 238 244 248 252 243 214 208 210 209 211 218 196
243 234 232 246 257 249 239 234 234 235 226 202 200 200 195 201 187 200 210 200 199 188 186 196 194 197 193 195 201 191 200 206 213 209 214 200 201 191 171 195 182 195 203 193 207 204 205 207 210 210 209 213 219 219 225 229 230 231 226 225 222 225 230 236 242 246 252 251 251 242 251 249 232 234 249 244 234 223 224 222 225 211 200 207 186
233 239 238 229 228 238 247 238 234 232 220 209 208 206 205 202 209 197 194 196 203 180 190 183 189 188 198 202 203 198 209 211 209 207 200 179 177 180 179 193 186 187 190 189 187 190 191 203 206 212 206 208 209 213 221 228 221 206 207 212 221 229 238 239 240 237 238 240 241 246 247 242 222 222 234 237 232 232 235 242 240 216 201 178 197
219 220 233 263 273 236 227 230 232 232 218 211 204 208 208 206 219 215 204 191 184 168 176 178 185 194 193 207 203 207 205 203 195 180 155 159 171 172 171 187 188 177 183 199 206 196 209 187 210 182 191 197 190 180 191 205 211 213 213 218 230 232 233 234 235 242 251 255 249 249 254 247 226 221 230 234 234 233 218 226 216 206 186 178 201
249 240 223 222 231 240 235 232 231 231 219 220 211 206 203 200 213 210 195 179 167 165 173 184 183 199 206 208 202 187 177 165 150 148 164 170 165 172 182 179 170 189 204 211 211 206 227 194 213 201 204 192 191 189 198 207 211 215 208 211 220 236 241 248 252 248 250 257 254 248 246 234 221 225 220 233 214 226 217 231 208 176 175 184 202
235 233 224 228 232 232 230 226 232 232 232 227 217 222 221 229 228 213 185 192 172 169 178 184 193 205 211 186 167 156 143 147 157 163 170 174 176 175 168 163 173 196 195 200 199 200 204 220 215 199 206 197 198 208 205 207 211 221 201 224 226 231 242 261 266 259 247 237 233 228 227 225 210 218 218 220 220 219 204 228 209 161 164 181 175
230 230 229 230 238 249 245 236 238 229 232 227 223 219 214 212 215 201 190 191 165 185 178 189 202 208 190 174 160 157 163 160 170 178 181 180 181 183 189 202 210 203 202 204 195 203 199 205 208 214 206 198 211 214 210 211 205 207 208 225 241 244 236 233 240 251 256 228 217 212 213 189 181 195 202 210 217 213 205 208 190 173 178 182 196
238 247 248 247 251 251 250 241 237 227 226 224 225 224 220 227 221 196 194 184 174 183 190 192 208 195 182 164 164 172 168 184 187 184 184 185 190 188 203 224 229 221 217 214 207 210 210 208 208 204 210 216 220 209 200 200 209 213 206 203 208 230 227 234 237 247 260 270 266 183 110 127 144 168 183 195 208 212 212 212 171 190 189 182 183
241 244 255 261 252 247 239 237 233 226 222 222 225 222 204 224 212 204 190 170 181 188 191 201 202 183 180 176 175 171 184 192 185 196 189 186 177 185 207 208 204 204 211 202 209 215 215 220 221 222 219 214 219 213 196 195 199 204 198 194 196 209 209 222 243 246 268 283 284 326 38 68 107 128 135 123 112 118 154 170 146 187 213 233 219
250 245 243 242 241 238 235 239 235 227 221 225 214 200 219 219 208 202 156 179 190 190 193 201 196 189 188 183 180 186 193 194 202 192 179 172 181 189 198 198 204 204 194 195 209 205 212 207 201 206 218 216 215 205 198 199 196 194 197 192 193 188 182 211 218 235 245 275 358 5 359 19 43 72 95 112 125 115 90 91 116 171 219 229 248
259 252 249 250 249 248 238 232 232 233 227 227 196 210 220 197 174 154 181 189 182 192 197 203 193 196 191 185 187 191 199 202 187 181 176 181 188 201 198 198 194 195 197 205 208 211 209 200 201 204 210 208 208 204 197 197 195 193 195 187 194 185 182 180 190 190 174 178 186 185 189 259 81 108 133 145 139 137 136 136 163 200 221 230 232
254 258 253 247 244 247 251 241 232 228 226 197 210 217 211 175 174 178 187 183 193 192 200 200 197 195 187 189 191 194 200 193 183 180 183 192 195 197 198 200 195 194 196 201 202 207 211 206 207 206 202 210 216 202 201 195 194 191 186 177 165 163 166 172 172 164 169 181 185 183 174 183 179 188 184 165 152 154 149 150 185 223 226 238 213
249 247 252 248 240 232 230 231 233 223 210 196 218 199 186 205 171 182 184 196 192 195 202 192 202 199 196 193 190 195 195 185 183 183 192 198 196 199 200 192 190 197 204 200 210 202 200 203 204 199 204 220 221 204 198 193 187 185 166 147 151 163 169 164 151 152 164 176 176 176 170 175 183 185 176 171 169 157 155 183 251 273 286 310 304
244 246 250 249 242 234 236 237 253 190 199 213 215 180 190 175 179 193 183 189 187 202 207 203 208 202 198 194 192 192 192 187 185 188 198 199 196 199 199 182 187 194 192 200 200 194 197 193 194 200 204 224 223 217 203 195 184 168 148 147 149 149 153 153 174 177 175 173 177 169 160 173 180 186 179 182 177 156 154 180 227 269 289 320 288
233 243 248 252 257 261 247 216 229 216 212 210 184 184 177 185 193 182 179 190 193 213 212 204 209 204 198 192 191 190 190 188 187 198 200 199 195 192 196 183 188 186 195 196 189 195 192 190 188 199 197 198 213 218 212 202 185 171 159 156 156 152 165 176 172 165 156 152 157 164 177 190 196 195 176 180 177 159 174 186 199 258 295 292 283
230 233 242 252 254 246 242 213 209 218 222 197 183 172 176 194 191 185 191 194 208 220 212 207 213 204 192 190 189 190 192 190 195 202 195 192 194 194 181 173 188 183 190 176 179 186 188 192 196 196 195 193 200 211 214 204 188 178 165 157 157 156 164 187 171 162 155 156 184 195 202 202 197 178 182 184 180 163 177 180 180 163 253 268 254
236 241 239 243 249 265 234 213 212 225 213 184 171 171 189 197 197 177 185 210 216 218 215 214 215 188 186 184 188 192 194 194 200 195 191 195 181 173 181 181 186 183 178 172 171 181 187 199 189 187 194 199 191 205 218 217 195 184 172 155 153 154 183 187 179 171 167 197 198 211 218 214 209 203 195 191 190 178 179 166 139 185 218 260 177
229 233 236 241 249 238 241 232 227 231 184 171 166 176 197 205 195 182 200 212 221 221 213 202 178 174 185 191 191 194 197 200 196 191 183 179 183 187 177 180 182 179 170 170 177 181 189 198 193 192 192 203 193 191 208 209 205 190 175 160 167 186 185 171 174 175 188 185 207 219 223 216 214 214 207 203 198 198 181 167 180 203 212 166 132
239 248 254 253 258 257 256 261 254 245 186 172 174 189 207 203 195 210 214 214 220 221 194 178 178 187 189 190 196 198 196 192 181 172 181 192 189 180 182 179 173 171 174 178 175 178 187 194 198 195 196 200 202 201 194 207 202 193 185 178 170 202 181 161 157 183 176 199 203 195 213 211 209 214 214 208 208 209 197 182 207 213 205 177 138
240 251 247 238 266 263 256 256 249 204 183 172 173 199 211 205 211 222 221 223 220 181 184 189 186 185 190 192 192 190 191 185 184 185 185 190 180 178 180 176 174 173 175 177 181 180 185 193 193 203 200 203 201 203 201 200 204 196 193 190 195 186 170 160 168 183 196 204 191 196 201 192 198 206 212 214 216 212 203 205 214 213 206 196 145
303 282 279 293 261 260 256 245 227 199 181 178 177 201 210 209 224 226 222 231 197 179 178 184 191 196 188 189 189 189 186 184 184 180 185 184 185 184 178 183 179 175 176 180 186 183 187 192 195 197 201 203 202 196 204 200 192 199 200 200 201 185 167 184 180 193 191 181 181 189 191 192 195 205 210 219 221 212 202 218 220 212 191 181 138
257 260 264 254 248 259 268 278 263 214 202 191 193 198 210 215 229 209 216 213 195 184 182 193 194 196 194 190 183 185 186 185 183 179 183 188 187 182 184 187 178 182 182 186 189 184 193 194 190 194 194 194 193 190 194 197 192 196 199 201 202 190 191 164 179 196 170 183 182 177 183 190 202 205 202 217 223 224 224 224 226 208 179 155 154
269 274 255 249 272 268 254 255 259 231 219 208 207 201 208 223 223 212 217 197 186 185 195 201 197 193 191 178 182 186 186 186 184 188 193 193 189 187 189 182 182 188 189 189 188 189 196 193 196 192 189 189 181 180 185 180 181 184 192 198 192 192 192 189 182 177 181 167 171 170 175 183 182 162 110 102 107 40 44 18 300 217 149 158 150
267 258 254 260 249 260 254 243 253 247 223 222 212 213 220 229 224 213 194 179 187 194 203 203 199 195 181 177 182 184 185 187 188 190 194 192 190 193 192 187 189 189 191 195 191 191 196 196 198 191 180 176 184 182 180 175 171 170 175 178 167 172 173 174 167 164 161 161 152 145 129 121 105 103 94 91 79 58 52 34 38 50 109 138 153
236 256 256 258 257 248 252 250 250 257 239 236 231 229 228 233 237 192 178 180 193 198 201 204 199 186 184 184 190 187 183 187 190 189 191 194 198 195 196 194 191 191 189 195 191 192 197 198 196 181 170 174 186 189 185 179 172 169 162 153 158 156 169 169 157 155 142 140 113 96 79 72 77 64 54 46 41 54 69 55 41 35 68 112 122
260 255 229 226 235 239 241 244 251 251 239 235 237 237 231 225 223 191 170 182 203 205 211 209 187 177 191 189 193 190 193 191 191 195 203 200 195 195 203 212 219 212 202 192 191 196 199 196 185 178 175 184 185 197 199 161 163 165 159 159 169 182 172 175 167 148 109 92 94 88 95 67 65 90 65 47 18 28 27 50 55 36 52 106 125
244 250 246 233 226 227 244 247 256 255 233 236 241 244 237 222 199 189 180 197 205 195 198 203 185 191 189 184 195 195 196 195 195 197 195 204 208 207 213 208 201 183 184 182 180 195 179 165 172 181 183 191 197 171 140 159 161 163 165 167 173 168 171 160 162 150 127 114 113 123 123 129 112 107 107 100 54 63 35 8 0 47 87 114 149
282 291 278 246 240 213 222 247 255 261 246 238 242 241 225 209 194 189 189 203 188 195 204 203 190 199 194 189 187 188 190 193 190 189 191 193 177 162 177 176 158 154 154 151 155 145 149 167 165 161 121 125 133 146 157 159 158 160 166 170 168 170 164 160 151 122 97 133 141 141 145 120 125 121 130 160 149 130 158 184 287 299 219 178 192